Location: Unnamed
(47.9062°N, 20.3783°E)
Time: 09:26:53
(UTC+01:00)

ISS - Visible Passes

Search period start: 10 December 2022 00:00
Search period end: 20 December 2022 00:00
Orbit: 414 x 420 km, 51.6° (Epoch: 09 December)

Date Brightness Start Highest point End Pass type
(mag) Time Alt. Az. Time Alt. Az. Time Alt. Az.
15 Dec -0.2 06:40:02 10° SSE 06:41:28 12° SE 06:42:53 10° ESE visible
17 Dec -1.4 06:38:12 10° SSW 06:41:06 27° SE 06:44:01 10° E visible
18 Dec -0.8 05:50:30 10° S 05:52:52 18° SE 05:55:15 10° E visible
19 Dec -0.5 05:03:29 10° SSE 05:04:40 11° SE 05:05:51 10° ESE visible
19 Dec -3.1 06:37:32 10° SW 06:40:51 60° SSE 06:44:10 10° ENE visible
